Regional Weather Roundup
Issued by NWS

Home | Current Version | Previous Version | Text Only | Print | Product List | Glossary On
Versions: 1 2 3 4 5 6 7 8 9 10 11 12 13 14 15 16 17 18 19 20 21 22 23 24 25 26 27 28 29 30 31 32 33 34 35 36 37 38 39 40 41 42 43 44 45 46 47 48 49 50
000
ASUS43 KIND 290909
RWRIN

WEATHER ROUNDUP FOR INDIANA
NATIONAL WEATHER SERVICE INDIANAPOLIS IN
500 AM EDT THU JUN 29 2017

NOTE: "FAIR" INDICATES FEW OR NO CLOUDS BELOW 12,000 FEET WITH NO
SIGNIFICANT WEATHER AND/OR OBSTRUCTIONS TO VISIBILITY.

* - STATION DOES NOT REPORT WEATHER SUCH AS PRECIPITATION OR FOG.

+ - STATION NOT QUALITY CONTROLLED BY THE NATIONAL WEATHER SERVICE.
    USE DATA WITH CAUTION...ESPECIALLY DEWPOINT AND RELATIVE
    HUMIDITY OBSERVATIONS.

INZ001>003-010>013-019-020-291000-
NORTHWEST INDIANA

CITY           SKY/WX    TMP DP  RH WIND       PRES   REMARKS
GARY /AIRPORT/ CLOUDY    76  62  61 S5        29.78F
KNOX *+        CLOUDY    72  52  49 S9G17     29.81F
LA PORTE +     MOCLDY    72  63  73 S7        29.81F
MICHIGAN CITY+ CLOUDY    72  63  73 S12       29.79F
MONTICELLO +   CLOUDY    73  61  65 SW20G28   29.84F
RENSSELAER +   MOCLDY    75  59  57 S30G43    29.78F
VALPARAISO     CLOUDY    75  65  70 S10       29.80F

$$

LMZ046-743>745-291000-
SOUTHERN LAKE MICHIGAN

STATION/POSITION TIME  TEMP    WIND        PRES    WAVE
                       AIR SEA DIR/SP/G            HT
                 (UTC) (F)     (DEG/KT/KT) (MB)    (FT)
BURNS HARBOR     0840   74     180/ 11/ 16 1008.5F
MICHIGAN CITY    0840   73     170/ 12/ 14   N/A
5NW MICH CITY    0900   71 65  190/  8/ 12   N/A     1

$$

INZ004-005-014>016-021>024-291000-
NORTH CENTRAL INDIANA

CITY           SKY/WX    TMP DP  RH WIND       PRES   REMARKS
GOSHEN         CLOUDY    71  58  63 S12       29.85F
LOGANSPORT +   MOCLDY    70  61  73 SW17      29.88S
PERU/GRISSOM   CLOUDY    70  61  72 S15       29.87F
ROCHESTER +    CLOUDY    73  61  64 SW12      29.86F
SOUTH BEND     CLOUDY    70  62  76 S10       29.81F
WARSAW +       MOCLDY    72  59  64 SW6       29.87F

$$

INZ006>009-017-018-025>027-291000-
NORTHEAST INDIANA

CITY           SKY/WX    TMP DP  RH WIND       PRES   REMARKS
ANGOLA *+      PTCLDY    68  61  77 S7        29.88F
AUBURN +       CLOUDY    70  54  56 SW6       29.91S
FORT WAYNE     CLOUDY    71  57  61 SW15      29.90F
HUNTINGTON +   CLOUDY    69  57  64 SW8       29.90S
KENDALLVILLE + CLOUDY    69  57  65 S10       29.89F

$$

INZ028-029-035-036-043>045-051>053-291000-
WEST CENTRAL INDIANA

CITY           SKY/WX    TMP DP  RH WIND       PRES   REMARKS
CRAWFORDSVL +  MOCLDY    69  62  78 S10       29.92F
GREENCASTLE +  CLOUDY    72  59  64 S6        29.95S
LAFAYETTE      CLOUDY    73  63  70 SW10G25   29.86F
TERRE HAUTE    CLOUDY    72  62  71 S12G20    29.94F

$$

INZ030>032-037>040-046>048-054>057-064-065-291000-
CENTRAL INDIANA

CITY           SKY/WX    TMP DP  RH WIND       PRES   REMARKS
CP ATTERBURY + CLOUDY    63  55  77 S3        29.98S
FISHERS *+     CLOUDY    68  61  77 S10       29.95
FRANKFORT +    CLOUDY    74  63  69 SW12G18   29.93S
GREENWOOD *+   MOCLDY    69  56  64 S9        29.97S
INDIANAPOLIS   MOCLDY    70  59  68 SW13      29.94F
-EAGLE CREEK   MOCLDY    70  59  68 S7        29.94F
KOKOMO +       MOCLDY    71  60  68 S17G23    29.91S
MARION +       CLOUDY    68  55  64 S15       29.93S
MT COMFORT *+  CLOUDY    66  57  72 S8        29.97R
SHELBYVILLE    PTCLDY    68  55  63 S13       29.97R
ZIONSVILLE +   CLOUDY    69  59  71 S14       29.94F

$$

INZ033-034-041-042-049-050-058-059-291000-
EAST CENTRAL INDIANA

CITY           SKY/WX    TMP DP  RH WIND       PRES   REMARKS
MUNCIE         MOCLDY    73  57  57 SW13G21   29.94S
RICHMOND +     CLOUDY    61  55  82 S8        30.00S

$$

INZ060-061-067>069-081>083-085>088-291000-
SOUTHWEST INDIANA

CITY           SKY/WX    TMP DP  RH WIND       PRES   REMARKS
EVANSVILLE     CLOUDY    71  62  73 S6        30.00R
HUNTINGBURG *+ CLOUDY    68  62  81 S8        30.00S
WASHINGTON +   CLOUDY    68  60  75 S7        29.98R

$$

INZ062-063-066-070>080-084-089>092-291000-
SOUTH CENTRAL AND SOUTHEAST INDIANA

CITY           SKY/WX    TMP DP  RH WIND       PRES   REMARKS
BLOOMINGTON    PTCLDY    70  59  68 S8        29.98R
MADISON *+     CLOUDY    68  54  60 S6        30.04R
NORTH VERNON + PTCLDY    68  55  64 S9        30.01R
SEYMOUR +      PTCLDY    70  57  64 S6        30.00R

$$





USA.gov is the U.S. government's official web portal to all federal, state and local government web resources and services.